Date String (YYYY-MM-DD hh:mm:ss) UTC,Instrument flags,Ambient pressure (hPa),Sample flow (lpm),Bypass flow (lpm),Sample temperature (°C),Ambient temperature (°C),ASC tube jacket temperature (°C),LED temperature (°C),Box temperature (°C),Sample RH (%),Span deviation,Mass concentration (μg/m³),Mass concentration (μg/m³),Mass concentration (μg/m³)
DateTimeUTC,F1_M11,P_M11,Q1_M11,Q2_M11,T1_M11,T2_M11,T3_M11,T4_M11,T5_M11,U1_M11,ZSPAN_M11,X0_M11,X2_M11,X1_M11
2022-03-17 04:00:00,,0823.1,5.00,0.00,24.4,23.7,00.0,33.4,26.3,19.5,0000.0,0003.96,0001.99,0001.06
2022-03-17 04:01:00,,0823.1,5.00,0.00,24.4,23.7,00.0,33.4,26.3,19.5,0000.0,0003.95,0001.97,0001.06
2022-03-17 04:02:00,,0823.1,5.00,0.00,24.4,23.7,00.0,33.4,26.3,19.5,0000.0,0003.87,0001.93,0001.06
2022-03-17 04:03:00,,0823.1,5.00,0.00,24.4,23.7,00.0,33.4,26.3,19.4,0000.0,0004.15,0001.92,0001.06
2022-03-17 04:04:00,,0823.1,5.00,0.00,24.4,23.7,00.0,33.4,26.3,19.3,0000.0,0004.41,0001.91,0001.06
2022-03-17 04:05:00,,0823.1,5.00,0.00,24.4,23.6,00.0,33.4,26.3,19.3,0000.0,0004.40,0001.87,0001.05
2022-03-17 04:06:00,,0823.1,5.00,0.00,24.4,23.6,00.0,33.4,26.3,19.3,0000.0,0004.29,0001.83,0001.04
2022-03-17 04:07:00,,0823.1,5.00,0.00,24.4,23.6,00.0,33.4,26.2,19.3,0000.0,0004.36,0001.85,0001.04
2022-03-17 04:08:00,,0823.1,4.99,0.00,24.4,23.6,00.0,33.4,26.2,19.2,0000.0,0004.31,0001.85,0001.03
2022-03-17 04:09:00,,0823.1,5.00,0.00,24.4,23.6,00.0,33.4,26.2,19.2,0000.0,0004.16,0001.81,0001.03
2022-03-17 04:10:00,,0823.1,5.01,0.00,24.4,23.6,00.0,33.4,26.2,19.2,0000.0,0004.11,0001.79,0001.02
2022-03-17 04:11:00,,0823.2,4.99,0.00,24.4,23.6,00.0,33.3,26.2,19.2,0000.0,0004.03,0001.77,0001.01
2022-03-17 04:12:00,,0823.1,5.01,0.00,24.4,23.6,00.0,33.3,26.2,19.1,0000.0,0003.86,0001.71,0001.00
2022-03-17 04:13:00,,0823.1,5.00,0.00,24.4,23.6,00.0,33.3,26.2,19.1,0000.0,0003.80,0001.68,0000.98
2022-03-17 04:14:00,,0823.1,5.00,0.00,24.4,23.6,00.0,33.3,26.2,19.1,0000.0,0003.60,0001.68,0000.95
2022-03-17 04:15:00,,0823.1,5.00,0.00,24.4,23.6,00.0,33.3,26.2,19.1,0000.0,0003.19,0001.64,0000.95
2022-03-17 04:16:00,,0823.1,4.99,0.00,24.4,23.6,00.0,33.3,26.2,19.1,0000.0,0003.10,0001.61,0000.94
2022-03-17 04:17:00,,0823.1,5.01,0.00,24.4,23.6,00.0,33.3,26.2,19.1,0000.0,0003.15,0001.63,0000.93
2022-03-17 04:18:00,,0823.1,5.00,0.00,24.4,23.6,00.0,33.3,26.2,19.1,0000.0,0003.15,0001.66,0000.93
2022-03-17 04:19:00,,0823.1,4.99,0.00,24.4,23.6,00.0,33.3,26.2,19.1,0000.0,0003.04,0001.62,0000.93
2022-03-17 04:20:00,,0823.1,5.01,0.00,24.3,23.6,00.0,33.3,26.1,19.1,0000.0,0002.83,0001.54,0000.90
2022-03-17 04:21:00,,0823.1,4.99,0.00,24.3,23.6,00.0,33.3,26.1,19.1,0000.0,0002.74,0001.51,0000.89
2022-03-17 04:22:00,,0823.1,4.99,0.00,24.3,23.5,00.0,33.3,26.1,19.1,0000.0,0002.84,0001.55,0000.88
2022-03-17 04:23:00,,0823.2,5.00,0.00,24.3,23.5,00.0,33.3,26.1,19.1,0000.0,0003.15,0001.66,0000.89
2022-03-17 04:24:00,,0823.1,4.99,0.00,24.3,23.5,00.0,33.3,26.1,19.1,0000.0,0003.16,0001.66,0000.88
2022-03-17 04:25:00,,0823.1,5.00,0.00,24.3,23.5,00.0,33.3,26.1,19.2,0000.0,0003.11,0001.64,0000.89
2022-03-17 04:26:00,,0823.2,5.00,0.00,24.3,23.5,00.0,33.3,26.1,19.2,0000.0,0003.16,0001.67,0000.89
2022-03-17 04:27:00,,0823.1,4.99,0.00,24.3,23.5,00.0,33.3,26.2,19.2,0000.0,0003.31,0001.72,0000.88
2022-03-17 04:28:00,,0823.2,5.00,0.00,24.3,23.5,00.0,33.3,26.2,19.1,0000.0,0003.20,0001.72,0000.87
2022-03-17 04:29:00,,0823.2,5.01,0.00,24.3,23.5,00.0,33.3,26.2,19.1,0000.0,0003.14,0001.69,0000.86
2022-03-17 04:30:00,,0823.2,5.00,0.00,24.3,23.5,00.0,33.3,26.2,19.1,0000.0,0003.20,0001.71,0000.86
2022-03-17 04:31:00,,0823.2,5.00,0.00,24.3,23.5,00.0,33.3,26.2,19.1,0000.0,0003.33,0001.75,0000.87
2022-03-17 04:32:00,,0823.2,5.00,0.00,24.3,23.5,00.0,33.3,26.2,19.1,0000.0,0003.47,0001.78,0000.87
2022-03-17 04:33:00,,0823.2,5.01,0.00,24.4,23.6,00.0,33.3,26.2,19.1,0000.0,0003.37,0001.74,0000.86
2022-03-17 04:34:00,,0823.2,5.00,0.00,24.4,23.6,00.0,33.3,26.2,19.1,0000.0,0003.19,0001.67,0000.86
2022-03-17 04:35:00,,0823.2,5.00,0.00,24.3,23.6,00.0,33.3,26.2,19.2,0000.0,0003.34,0001.70,0000.86
2022-03-17 04:36:00,,0823.2,5.00,0.00,24.3,23.6,00.0,33.3,26.2,19.1,0000.0,0003.29,0001.69,0000.86
2022-03-17 04:37:00,,0823.2,5.00,0.00,24.4,23.6,00.0,33.3,26.2,19.1,0000.0,0003.25,0001.67,0000.87
2022-03-17 04:38:00,,0823.2,5.00,0.00,24.4,23.6,00.0,33.3,26.2,19.1,0000.0,0003.10,0001.63,0000.88
2022-03-17 04:39:00,,0823.3,5.00,0.00,24.4,23.6,00.0,33.3,26.2,19.1,0000.0,0002.96,0001.56,0000.88
2022-03-17 04:40:00,,0823.3,5.01,0.00,24.4,23.6,00.0,33.3,26.2,19.1,0000.0,0002.98,0001.55,0000.89
2022-03-17 04:41:00,,0823.3,4.98,0.00,24.4,23.6,00.0,33.3,26.2,19.2,0000.0,0003.01,0001.54,0000.88
2022-03-17 04:42:00,,0823.3,5.00,0.00,24.4,23.6,00.0,33.3,26.2,19.1,0000.0,0002.87,0001.47,0000.87
2022-03-17 04:43:00,,0823.3,5.00,0.00,24.4,23.6,00.0,33.3,26.2,19.2,0000.0,0002.60,0001.39,0000.87
2022-03-17 04:44:00,,0823.2,4.99,0.00,24.4,23.6,00.0,33.3,26.2,19.1,0000.0,0002.59,0001.40,0000.88
2022-03-17 04:45:00,,0823.2,5.00,0.00,24.4,23.6,00.0,33.3,26.2,19.1,0000.0,0002.57,0001.38,0000.87
2022-03-17 04:46:00,,0823.2,5.00,0.00,24.4,23.6,00.0,33.3,26.2,19.1,0000.0,0002.55,0001.37,0000.87
2022-03-17 04:47:00,,0823.2,4.99,0.00,24.4,23.6,00.0,33.3,26.2,19.1,0000.0,0002.53,0001.37,0000.87
2022-03-17 04:48:00,,0823.3,5.01,0.00,24.4,23.6,00.0,33.3,26.2,19.1,0000.0,0002.53,0001.37,0000.87
2022-03-17 04:49:00,,0823.2,4.99,0.00,24.4,23.6,00.0,33.3,26.2,19.1,0000.0,0002.49,0001.36,0000.87
2022-03-17 04:50:00,,0823.2,5.01,0.00,24.4,23.6,00.0,33.3,26.2,19.1,0000.0,0002.54,0001.38,0000.87
2022-03-17 04:51:00,,0823.3,4.99,0.00,24.4,23.6,00.0,33.3,26.2,19.1,0000.0,0002.58,0001.39,0000.87
2022-03-17 04:52:00,,0823.3,4.99,0.00,24.4,23.6,00.0,33.3,26.2,19.1,0000.0,0002.44,0001.37,0000.87
2022-03-17 04:53:00,,0823.2,5.02,0.00,24.4,23.6,00.0,33.3,26.2,19.1,0000.0,0002.52,0001.41,0000.88
2022-03-17 04:54:00,,0823.2,4.99,0.00,24.4,23.6,00.0,33.3,26.2,19.0,0000.0,0002.61,0001.44,0000.89
2022-03-17 04:55:00,,0823.2,5.00,0.00,24.4,23.6,00.0,33.3,26.2,19.0,0000.0,0002.69,0001.46,0000.88
2022-03-17 04:56:00,,0823.3,5.00,0.00,24.4,23.6,00.0,33.3,26.2,19.0,0000.0,0002.62,0001.44,0000.88
2022-03-17 04:57:00,,0823.3,5.00,0.00,24.4,23.6,00.0,33.3,26.2,19.0,0000.0,0002.47,0001.40,0000.88
2022-03-17 04:58:00,,0823.2,5.01,0.00,24.4,23.6,00.0,33.3,26.2,19.0,0000.0,0002.47,0001.40,0000.88
2022-03-17 04:59:00,,0823.2,5.00,0.00,24.4,23.6,00.0,33.3,26.2,19.0,0000.0,0002.55,0001.42,0000.87
